Voltar ao catálogo

USA 15

AtivoMilitarLEO
NORAD 16591·PAYLOAD·🇺🇸 United States

Lançado Feb 9, 1986 de Vandenberg Space Force Base

Loading…

Próximas Passagens (próximas 24 horas)

TLE

AtualizadoSource: Space-Track

Época: Sep 14, 2026, 05:57 UTC

1 16591U 86014A   26257.24792196  .00008987  00000-0  48903-3 0  9992
2 16591  63.3057 352.8432 0647911 114.6421 252.3528 14.17184696120548

Acompanhe USA 15 em tempo real com AllMySat

Download on the App Store